• Join FlightAware (Why Join?)
  • Login
  • US Flag 
 
04:11PM EST


 

Airport Tracker/Info


-or-


 

Live Flight TrackerFlight Track Log ✈ UAL4380 ✈ 19-Apr-2013 ✈ KIAH - KDAL

Flight Track Log - Related Links

Times and Time Zones

All times are in EDT time to prevent confusion due to time zone crossing. See the UAL4380 flight status page for this flight to view local times or setup timezone preferences in your user account.

Time Position Orientation Groundspeed Altitude Reporting Facility
EDT Latitude Longitude Course Direction KTS MPH feet Rate Location/Type
09:20AM 29.9794 -95.3536 346° North 150 173 600  Level Houston Center
09:21AM 29.9964 -95.3561 353° North 153 176 1,800 2,100 Climbing Houston Center
09:21AM 30.0317 -95.3528 North 169 194 3,100 2,040 Climbing Houston Center
09:22AM 30.0486 -95.3525 North 192 221 3,900 2,100 Climbing Houston Center
09:22AM 30.0886 -95.3628 347° North 205 236 5,300 2,100 Climbing Houston Center
09:23AM 30.1531 -95.3778 349° North 226 260 7,800 2,100 Climbing Houston Center
09:24AM 30.3245 -95.4202 349° North  Level FlightAware Approximate
09:24AM 30.2153 -95.3939 347° North 234 269 9,700  Level Houston Center
09:25AM 30.4101 -95.4410 346° North  Level FlightAware Approximate
09:25AM 30.2925 -95.4147 347° North 280 322 11,000  Level Houston Center
09:26AM 30.3969 -95.4392 349° North 314 361 12,600 1,500 Climbing Houston Center
09:27AM 30.4903 -95.4633 347° North 339 390 14,100 1,260 Climbing Houston Center
09:28AM 30.5889 -95.4867 348° North 359 413 15,300 1,140 Climbing Houston Center
09:30AM 30.6967 -95.5119 349° North 377 434 16,500 1,140 Climbing Houston Center
09:31AM 30.8014 -95.5353 349° North 383 441 17,700 840 Climbing Houston Center
09:32AM 30.9100 -95.5603 349° North 393 452 18,300 780 Climbing Houston Center
09:33AM 31.0236 -95.5850 349° North 410 472 19,400 780 Climbing Houston Center
09:34AM 31.1350 -95.6106 349° North 414 476 20,000 240 Climbing Houston Center
09:35AM 31.2558 -95.6389 349° North 429 494 20,000  Level Houston Center
09:35AM 31.2969 -95.6483 349° North 422 486 20,000  Level Fort Worth Center
09:36AM 31.3978 -95.6878 342° North 398 458 20,000  Level Fort Worth Center
09:37AM 31.4883 -95.7469 331° Northwest 375 432 20,000  Level Fort Worth Center
09:38AM 31.5789 -95.8089 330° Northwest 375 432 20,000 -240 Level Fort Worth Center
09:39AM 31.6717 -95.8706 331° Northwest 382 440 19,600 -1,020 Descending Fort Worth Center
09:40AM 31.7622 -95.9400 327° Northwest 370 426 18,000 -1,740 Descending Fort Worth Center
09:41AM 31.8419 -95.9878 333° Northwest 355 409 16,200 -1,800 Descending Fort Worth Center
09:42AM 31.9283 -96.0450 331° Northwest 337 388 14,400 -1,920 Descending Fort Worth Center
09:43AM 32.0019 -96.0953 330° Northwest 314 361 12,400 -1,800 Descending Fort Worth Center
09:44AM 32.0628 -96.1336 332° Northwest 294 338 10,900 -1,200 Descending Fort Worth Center
09:45AM 32.1258 -96.1794 328° Northwest 271 312 10,000 -480 Descending Fort Worth Center
09:46AM 32.1869 -96.2203 331° Northwest 258 297 10,000 -60 Level Fort Worth Center
09:47AM 32.2561 -96.2611 333° Northwest 259 298 9,900 -540 Descending Fort Worth Center
09:48AM 32.3128 -96.2950 333° Northwest 239 275 9,000 -480 Descending Fort Worth Center
09:49AM 32.3633 -96.3411 322° Northwest 231 266 9,000  Level Fort Worth Center
09:50AM 32.4139 -96.3922 320° Northwest 231 266 9,000 -360 Level Fort Worth Center
09:51AM 32.4622 -96.4408 320° Northwest 231 266 8,300 -960 Descending Fort Worth Center
09:52AM 32.5064 -96.4822 322° Northwest 226 260 7,100 -1,140 Descending Fort Worth Center
09:53AM 32.5525 -96.5286 320° Northwest 219 252 6,100 -900 Descending Fort Worth Center
09:54AM 32.5947 -96.5700 320° Northwest 214 246 5,300 -600 Descending Fort Worth Center
09:55AM 32.6450 -96.6189 321° Northwest 214 246 5,000 -660 Descending Fort Worth Center
09:56AM 32.6850 -96.6606 319° Northwest 214 246 4,000 -780 Descending Fort Worth Center
09:56AM 32.7000 -96.6833 308° West 200 230 4,000 -480 Level Dallas / Fort Worth TRACON
09:57AM 32.7333 -96.7167 320° Northwest 180 207 3,400 -720 Descending Dallas / Fort Worth TRACON
09:58AM 32.7667 -96.7500 320° Northwest 127 146 2,600 -780 Descending Dallas / Fort Worth TRACON
09:59AM 32.7833 -96.7667 320° Northwest 122 140 2,000 -660 Descending Dallas / Fort Worth TRACON
10:00AM 32.8167 -96.8000 320° Northwest 117 135 1,300 -660 Descending Dallas / Fort Worth TRACON